Tracking 32968 objects as of 18-Jan-2026
HD Live streaming from Space Station
objects crossing your sky now

COSMOS 1275 DEB

Track COSMOS 1275 DEB now!
10-day predictions


NORAD ID: 42183
Int'l Code: 1981-053SX
Perigee: 911.4 km
Apogee: 979.5 km
Inclination: 82.9 °
Period: 103.8 minutes
Semi major axis: 7316 km
RCS: Unknown
Launch date: June 4, 1981
Source: Commonwealth of Independent States (former USSR) (CIS)
Launch site: PLESETSK MISSILE AND SPACE COMPLEX (PKMTR)

Note: This is SATELLITE DEBRIS
Your satellite tracking list
Your tracking list is empty




NASA's NSSDC Master Catalog

Two Line Element Set (TLE):
1 42183U 81053SX  26010.19039531  .00001210  00000-0  10079-2 0  9998
2 42183  82.9460 329.1404 0046546 167.7287 254.7119 13.87251134592713
Source of the keplerian elements: AFSPC